Powrót do katalogu

ARIANE 42P+ DEB

LostHEO
NORAD 28279·DEBRIS·🇫🇷 France

Wystrzelony Oct 28, 1992 z Guiana Space Centre

Loading…

Następne Przeloty (najbliższe 24 godziny)

TLE

NieaktualneSource: Space-Track

Epoka: Dec 3, 2023, 20:46 UTC

1 28279U 92072N   23337.86590150 -.00000291  00000-0 -14332-1 0  9998
2 28279   7.6758 249.5399 6463997 292.2789  13.6911  2.90303297211850

Śledź ARIANE 42P+ DEB w czasie rzeczywistym z AllMySat

Download on the App Store